﻿測定場所 (Monitoring sites),日付 (Measurement date),時間 (Measurement time),線量率 最大値 (max) μGy/h,線量率 最小値 (min) μGy/h,線量率 平均値 (average) μGy/h,
小平 (Kodaira),2017-12-10,23:01～24:00,0.0338,0.0303,0.0319,
小平 (Kodaira),2017-12-10,22:01～23:00,0.0339,0.0299,0.0319,
小平 (Kodaira),2017-12-10,21:01～22:00,0.0334,0.0297,0.0316,
小平 (Kodaira),2017-12-10,20:01～21:00,0.0336,0.0287,0.0310,
小平 (Kodaira),2017-12-10,19:01～20:00,0.0327,0.0285,0.0310,
小平 (Kodaira),2017-12-10,18:01～19:00,0.0324,0.0287,0.0309,
小平 (Kodaira),2017-12-10,17:01～18:00,0.0323,0.0288,0.0307,
小平 (Kodaira),2017-12-10,16:01～17:00,0.0323,0.0289,0.0308,
小平 (Kodaira),2017-12-10,15:01～16:00,0.0324,0.0286,0.0304,
小平 (Kodaira),2017-12-10,14:01～15:00,0.0327,0.0288,0.0307,
小平 (Kodaira),2017-12-10,13:01～14:00,0.0334,0.0291,0.0310,
小平 (Kodaira),2017-12-10,12:01～13:00,0.0339,0.0289,0.0311,
小平 (Kodaira),2017-12-10,11:01～12:00,0.0337,0.0296,0.0314,
小平 (Kodaira),2017-12-10,10:01～11:00,0.0354,0.0297,0.0324,
小平 (Kodaira),2017-12-10,09:01～10:00,0.0352,0.0302,0.0327,
小平 (Kodaira),2017-12-10,08:01～09:00,0.0346,0.0309,0.0329,
小平 (Kodaira),2017-12-10,07:01～08:00,0.0353,0.0310,0.0332,
小平 (Kodaira),2017-12-10,06:01～07:00,0.0352,0.0300,0.0325,
小平 (Kodaira),2017-12-10,05:01～06:00,0.0345,0.0303,0.0325,
小平 (Kodaira),2017-12-10,04:01～05:00,0.0338,0.0300,0.0320,
小平 (Kodaira),2017-12-10,03:01～04:00,0.0349,0.0297,0.0325,
小平 (Kodaira),2017-12-10,02:01～03:00,0.0344,0.0301,0.0321,
小平 (Kodaira),2017-12-10,01:01～02:00,0.0336,0.0292,0.0313,
小平 (Kodaira),2017-12-10,00:01～01:00,0.0333,0.0294,0.0310,
小平 (Kodaira),2017-12-09,23:01～24:00,0.0328,0.0285,0.0310,
小平 (Kodaira),2017-12-09,22:01～23:00,0.0329,0.0295,0.0313,
小平 (Kodaira),2017-12-09,21:01～22:00,0.0339,0.0285,0.0313,
小平 (Kodaira),2017-12-09,20:01～21:00,0.0328,0.0282,0.0309,
小平 (Kodaira),2017-12-09,19:01～20:00,0.0329,0.0285,0.0304,
小平 (Kodaira),2017-12-09,18:01～19:00,0.0322,0.0281,0.0301,
小平 (Kodaira),2017-12-09,17:01～18:00,0.0324,0.0272,0.0301,
小平 (Kodaira),2017-12-09,16:01～17:00,0.0318,0.0283,0.0301,
小平 (Kodaira),2017-12-09,15:01～16:00,0.0328,0.0274,0.0302,
小平 (Kodaira),2017-12-09,14:01～15:00,0.0319,0.0290,0.0304,
小平 (Kodaira),2017-12-09,13:01～14:00,0.0324,0.0276,0.0302,
小平 (Kodaira),2017-12-09,12:01～13:00,0.0329,0.0287,0.0308,
小平 (Kodaira),2017-12-09,11:01～12:00,0.0326,0.0282,0.0306,
小平 (Kodaira),2017-12-09,10:01～11:00,0.0326,0.0286,0.0306,
小平 (Kodaira),2017-12-09,09:01～10:00,0.0326,0.0285,0.0304,
小平 (Kodaira),2017-12-09,08:01～09:00,0.0326,0.0288,0.0309,
小平 (Kodaira),2017-12-09,07:01～08:00,0.0325,0.0288,0.0308,
小平 (Kodaira),2017-12-09,06:01～07:00,0.0329,0.0293,0.0313,
小平 (Kodaira),2017-12-09,05:01～06:00,0.0321,0.0281,0.0303,
小平 (Kodaira),2017-12-09,04:01～05:00,0.0321,0.0284,0.0302,
小平 (Kodaira),2017-12-09,03:01～04:00,0.0327,0.0287,0.0303,
小平 (Kodaira),2017-12-09,02:01～03:00,0.0323,0.0279,0.0306,
小平 (Kodaira),2017-12-09,01:01～02:00,0.0320,0.0285,0.0305,
小平 (Kodaira),2017-12-09,00:01～01:00,0.0323,0.0275,0.0305,
小平 (Kodaira),2017-12-08,23:01～24:00,0.0323,0.0281,0.0307,
小平 (Kodaira),2017-12-08,22:01～23:00,0.0361,0.0292,0.0317,
小平 (Kodaira),2017-12-08,21:01～22:00,0.0394,0.0310,0.0352,
小平 (Kodaira),2017-12-08,20:01～21:00,0.0516,0.0369,0.0439,
小平 (Kodaira),2017-12-08,19:01～20:00,0.0503,0.0373,0.0437,
小平 (Kodaira),2017-12-08,18:01～19:00,0.0428,0.0368,0.0399,
小平 (Kodaira),2017-12-08,17:01～18:00,0.0411,0.0333,0.0355,
小平 (Kodaira),2017-12-08,16:01～17:00,0.0375,0.0324,0.0354,
小平 (Kodaira),2017-12-08,15:01～16:00,0.0355,0.0292,0.0322,
小平 (Kodaira),2017-12-08,14:01～15:00,0.0331,0.0298,0.0313,
小平 (Kodaira),2017-12-08,13:01～14:00,0.0329,0.0294,0.0311,
小平 (Kodaira),2017-12-08,12:01～13:00,0.0332,0.0303,0.0319,
小平 (Kodaira),2017-12-08,11:01～12:00,0.0355,0.0301,0.0328,
小平 (Kodaira),2017-12-08,10:01～11:00,0.0346,0.0299,0.0326,
小平 (Kodaira),2017-12-08,09:01～10:00,0.0349,0.0307,0.0327,
小平 (Kodaira),2017-12-08,08:01～09:00,0.0351,0.0300,0.0329,
小平 (Kodaira),2017-12-08,07:01～08:00,0.0345,0.0305,0.0328,
小平 (Kodaira),2017-12-08,06:01～07:00,0.0344,0.0307,0.0325,
小平 (Kodaira),2017-12-08,05:01～06:00,0.0343,0.0300,0.0324,
小平 (Kodaira),2017-12-08,04:01～05:00,0.0349,0.0308,0.0325,
小平 (Kodaira),2017-12-08,03:01～04:00,0.0339,0.0305,0.0323,
小平 (Kodaira),2017-12-08,02:01～03:00,0.0348,0.0302,0.0323,
小平 (Kodaira),2017-12-08,01:01～02:00,0.0338,0.0302,0.0322,
小平 (Kodaira),2017-12-08,00:01～01:00,0.0339,0.0296,0.0321,
小平 (Kodaira),2017-12-07,23:01～24:00,0.0337,0.0301,0.0317,
小平 (Kodaira),2017-12-07,22:01～23:00,0.0331,0.0291,0.0311,
小平 (Kodaira),2017-12-07,21:01～22:00,0.0337,0.0294,0.0314,
小平 (Kodaira),2017-12-07,20:01～21:00,0.0325,0.0289,0.0308,
小平 (Kodaira),2017-12-07,19:01～20:00,0.0331,0.0285,0.0309,
小平 (Kodaira),2017-12-07,18:01～19:00,0.0322,0.0286,0.0303,
小平 (Kodaira),2017-12-07,17:01～18:00,0.0328,0.0283,0.0303,
小平 (Kodaira),2017-12-07,16:01～17:00,0.0328,0.0283,0.0304,
小平 (Kodaira),2017-12-07,15:01～16:00,0.0322,0.0283,0.0303,
小平 (Kodaira),2017-12-07,14:01～15:00,0.0321,0.0285,0.0304,
小平 (Kodaira),2017-12-07,13:01～14:00,0.0331,0.0288,0.0309,
小平 (Kodaira),2017-12-07,12:01～13:00,0.0332,0.0289,0.0308,
小平 (Kodaira),2017-12-07,11:01～12:00,0.0335,0.0294,0.0313,
小平 (Kodaira),2017-12-07,10:01～11:00,0.0335,0.0278,0.0313,
小平 (Kodaira),2017-12-07,09:01～10:00,0.0342,0.0299,0.0322,
小平 (Kodaira),2017-12-07,08:01～09:00,0.0353,0.0320,0.0337,
小平 (Kodaira),2017-12-07,07:01～08:00,0.0364,0.0318,0.0334,
小平 (Kodaira),2017-12-07,06:01～07:00,0.0348,0.0309,0.0334,
小平 (Kodaira),2017-12-07,05:01～06:00,0.0348,0.0297,0.0326,
小平 (Kodaira),2017-12-07,04:01～05:00,0.0343,0.0305,0.0325,
小平 (Kodaira),2017-12-07,03:01～04:00,0.0335,0.0303,0.0321,
小平 (Kodaira),2017-12-07,02:01～03:00,0.0330,0.0294,0.0313,
小平 (Kodaira),2017-12-07,01:01～02:00,0.0324,0.0292,0.0309,
小平 (Kodaira),2017-12-07,00:01～01:00,0.0327,0.0282,0.0305,
小平 (Kodaira),2017-12-06,23:01～24:00,0.0328,0.0291,0.0306,
小平 (Kodaira),2017-12-06,22:01～23:00,0.0337,0.0290,0.0310,
小平 (Kodaira),2017-12-06,21:01～22:00,0.0332,0.0293,0.0312,
小平 (Kodaira),2017-12-06,20:01～21:00,0.0335,0.0292,0.0313,
小平 (Kodaira),2017-12-06,19:01～20:00,0.0328,0.0290,0.0313,
小平 (Kodaira),2017-12-06,18:01～19:00,0.0328,0.0271,0.0307,
小平 (Kodaira),2017-12-06,17:01～18:00,0.0333,0.0283,0.0304,
小平 (Kodaira),2017-12-06,16:01～17:00,0.0324,0.0286,0.0304,
小平 (Kodaira),2017-12-06,15:01～16:00,0.0327,0.0283,0.0304,
小平 (Kodaira),2017-12-06,14:01～15:00,0.0327,0.0290,0.0309,
小平 (Kodaira),2017-12-06,13:01～14:00,0.0335,0.0290,0.0310,
小平 (Kodaira),2017-12-06,12:01～13:00,0.0329,0.0296,0.0309,
小平 (Kodaira),2017-12-06,11:01～12:00,0.0345,0.0286,0.0312,
小平 (Kodaira),2017-12-06,10:01～11:00,0.0320,0.0288,0.0308,
小平 (Kodaira),2017-12-06,09:01～10:00,0.0337,0.0281,0.0308,
小平 (Kodaira),2017-12-06,08:01～09:00,0.0328,0.0281,0.0309,
小平 (Kodaira),2017-12-06,07:01～08:00,0.0330,0.0285,0.0307,
小平 (Kodaira),2017-12-06,06:01～07:00,0.0333,0.0295,0.0310,
小平 (Kodaira),2017-12-06,05:01～06:00,0.0342,0.0293,0.0313,
小平 (Kodaira),2017-12-06,04:01～05:00,0.0328,0.0280,0.0307,
小平 (Kodaira),2017-12-06,03:01～04:00,0.0332,0.0288,0.0308,
小平 (Kodaira),2017-12-06,02:01～03:00,0.0326,0.0290,0.0308,
小平 (Kodaira),2017-12-06,01:01～02:00,0.0321,0.0289,0.0302,
小平 (Kodaira),2017-12-06,00:01～01:00,0.0324,0.0282,0.0303,
小平 (Kodaira),2017-12-05,23:01～24:00,0.0321,0.0279,0.0299,
小平 (Kodaira),2017-12-05,22:01～23:00,0.0317,0.0281,0.0299,
小平 (Kodaira),2017-12-05,21:01～22:00,0.0322,0.0277,0.0297,
小平 (Kodaira),2017-12-05,20:01～21:00,0.0312,0.0278,0.0297,
小平 (Kodaira),2017-12-05,19:01～20:00,0.0316,0.0280,0.0298,
小平 (Kodaira),2017-12-05,18:01～19:00,0.0317,0.0283,0.0300,
小平 (Kodaira),2017-12-05,17:01～18:00,0.0327,0.0287,0.0304,
小平 (Kodaira),2017-12-05,16:01～17:00,0.0319,0.0279,0.0300,
小平 (Kodaira),2017-12-05,15:01～16:00,0.0319,0.0281,0.0300,
小平 (Kodaira),2017-12-05,14:01～15:00,0.0327,0.0280,0.0302,
小平 (Kodaira),2017-12-05,13:01～14:00,0.0326,0.0278,0.0303,
小平 (Kodaira),2017-12-05,12:01～13:00,0.0329,0.0281,0.0309,
小平 (Kodaira),2017-12-05,11:01～12:00,0.0329,0.0286,0.0310,
小平 (Kodaira),2017-12-05,10:01～11:00,0.0337,0.0295,0.0316,
小平 (Kodaira),2017-12-05,09:01～10:00,0.0346,0.0290,0.0314,
小平 (Kodaira),2017-12-05,08:01～09:00,0.0340,0.0301,0.0322,
小平 (Kodaira),2017-12-05,07:01～08:00,0.0334,0.0297,0.0316,
小平 (Kodaira),2017-12-05,06:01～07:00,0.0343,0.0305,0.0320,
小平 (Kodaira),2017-12-05,05:01～06:00,0.0341,0.0301,0.0319,
小平 (Kodaira),2017-12-05,04:01～05:00,0.0354,0.0297,0.0319,
小平 (Kodaira),2017-12-05,03:01～04:00,0.0339,0.0296,0.0314,
小平 (Kodaira),2017-12-05,02:01～03:00,0.0327,0.0281,0.0309,
小平 (Kodaira),2017-12-05,01:01～02:00,0.0343,0.0295,0.0312,
小平 (Kodaira),2017-12-05,00:01～01:00,0.0334,0.0293,0.0310,
小平 (Kodaira),2017-12-04,23:01～24:00,0.0337,0.0291,0.0310,
小平 (Kodaira),2017-12-04,22:01～23:00,0.0341,0.0293,0.0313,
小平 (Kodaira),2017-12-04,21:01～22:00,0.0363,0.0302,0.0335,
小平 (Kodaira),2017-12-04,20:01～21:00,0.0411,0.0337,0.0374,
小平 (Kodaira),2017-12-04,19:01～20:00,0.0406,0.0338,0.0364,
小平 (Kodaira),2017-12-04,18:01～19:00,0.0364,0.0311,0.0334,
小平 (Kodaira),2017-12-04,17:01～18:00,0.0363,0.0319,0.0339,
小平 (Kodaira),2017-12-04,16:01～17:00,0.0339,0.0294,0.0315,
小平 (Kodaira),2017-12-04,15:01～16:00,0.0318,0.0263,0.0301,
小平 (Kodaira),2017-12-04,14:01～15:00,0.0328,0.0283,0.0305,
小平 (Kodaira),2017-12-04,13:01～14:00,0.0332,0.0287,0.0311,
小平 (Kodaira),2017-12-04,12:01～13:00,0.0345,0.0291,0.0315,
小平 (Kodaira),2017-12-04,11:01～12:00,0.0333,0.0292,0.0318,
小平 (Kodaira),2017-12-04,10:01～11:00,0.0335,0.0300,0.0318,
小平 (Kodaira),2017-12-04,09:01～10:00,0.0345,0.0303,0.0321,
小平 (Kodaira),2017-12-04,08:01～09:00,0.0344,0.0300,0.0323,
小平 (Kodaira),2017-12-04,07:01～08:00,0.0343,0.0314,0.0326,
小平 (Kodaira),2017-12-04,06:01～07:00,0.0348,0.0302,0.0324,
小平 (Kodaira),2017-12-04,05:01～06:00,0.0339,0.0304,0.0319,
小平 (Kodaira),2017-12-04,04:01～05:00,0.0347,0.0299,0.0324,
小平 (Kodaira),2017-12-04,03:01～04:00,0.0351,0.0301,0.0323,
小平 (Kodaira),2017-12-04,02:01～03:00,0.0342,0.0304,0.0322,
小平 (Kodaira),2017-12-04,01:01～02:00,0.0339,0.0302,0.0323,
小平 (Kodaira),2017-12-04,00:01～01:00,0.0343,0.0302,0.0321,
